Location: ShareBrained
(45.5589°N, 122.6491°W)
Time: 12:24:47
(UTC-08:00)

NOAA 19 - Pass Details

Date: 23 January 2020
Orbit: 840 x 862 km, 99.2° (Epoch: 24 February)

Event Time Altitude Azimuth Distance (km) Brightness Sun altitude
Rises 04:58:44 0° 27° (NNE) 3,407 8.7 -28.3°
Reaches altitude 10° 05:01:38 10° 42° (NE) 2,466 8.1 -27.8°
Maximum altitude 05:05:51 23° 93° (E) 1,735 7.5 -27.0°
Drops below altitude 10° 05:10:04 10° 144° (SE) 2,454 8.0 -26.3°
Sets 05:12:55 0° 159° (SSE) 3,385 8.6 -25.8°
